Location: Newark
(44.9956°N, 0.4447°W)
Time: 00:11:41
(UTC+00:00)

Tiangong 2 - Pass Details

Date: 19 July 2019
Orbit: 185 x 376 km, 42.8° (Epoch: 19 July)

Event Time Altitude Azimuth Distance (km) Brightness Sun altitude
Rises 21:37:52 0° 271° (W) 2,227 5.5 -15.9°
Reaches altitude 10° 21:40:31 10° 247° (WSW) 1,367 4.0 -16.1°
Enters shadow 21:42:03 15° 218° (SW) 1,106 3.2 -16.3°
